Regional Weather Roundup
Issued by NWS Green Bay, WI

Home | Current Version | Previous Version | Graphics & Text | Print | Product List | Glossary Off
Versions: 1 2 3 4 5 6 7 8 9 10 11 12 13 14 15 16 17 18 19 20 21 22 23 24 25 26 27 28 29 30 31 32 33 34 35 36 37 38 39 40 41 42 43 44 45 46 47 48 49 50

671
ASUS43 KGRB 300600
RWRGRB

NORTH-CENTRAL AND NORTHEAST WISCONSIN REGIONAL WEATHER ROUNDUP
NATIONAL WEATHER SERVICE GREEN BAY WI
100 AM CDT THU MAR 30 2017

WIZ005-009-010>012-018-019-300700-
NORTH CENTRAL WISCONSIN

CITY           SKY/WX    TMP DP  RH WIND       PRES   REMARKS
IRONWOOD       CLOUDY    37  28  70 E5        30.13F
MANITOWISH WTR NOT AVBL
ARBOR VITAE    NOT AVBL
EAGLE RIVER    NOT AVBL
LAND O LAKES   NOT AVBL
RHINELANDER    CLOUDY    36  24  62 E8        30.13F
PHILLIPS       CLOUDY    37  27  66 E7        30.11F
ANTIGO         NOT AVBL
TOMAHAWK       NOT AVBL
MERRILL        NOT AVBL
$$

WIZ013-073-300700-
NORTHEAST WISCONSIN

CITY           SKY/WX    TMP DP  RH WIND       PRES   REMARKS
IRON MOUNTAIN  CLOUDY    34  23  64 NE3       30.16F
MARINETTE      CLOUDY    34  27  75 NE7       30.17
$$

WIZ017-030-035>037-045-300700-
CENTRAL WISCONSIN

CITY           SKY/WX    TMP DP  RH WIND       PRES   REMARKS
MEDFORD        NOT AVBL
WAUSAU         CLOUDY    35  26  69 E8        30.09F
MOSINEE        NOT AVBL
MARSHFIELD     MIX PCPN  34  32  92 E14       30.07F
WISC RAPIDS    FLURRIES  34  34 100 E10       30.09F
STEVENS POINT  NOT AVBL
WAUPACA        NOT AVBL
SHAWANO        CLOUDY    37  31  80 NE8       30.15F
CLINTONVILLE   LGT RAIN  34  32  93 NE6       30.13F
WAUTOMA        LGT RAIN  35  33  92 NE8       30.09F
$$

WIZ038-039-048-051-300700-
FOX VALLEY

CITY           SKY/WX    TMP DP  RH WIND       PRES   REMARKS
NWS GREEN BAY  LGT RAIN  35  34  96 NE12      30.14F
APPLETON       NOT AVBL
OSHKOSH        LGT RAIN  37  32  82 E12       30.09F
FOND DU LAC    CLOUDY    38  32  79 NE10      30.08F
$$

WIZ022-050-052-300700-
EAST CENTRAL WISCONSIN

CITY           SKY/WX    TMP DP  RH WIND       PRES   REMARKS
EPHRAIM        NOT AVBL
WASHINGTON ISL NOT AVBL
STURGEON BAY   CLOUDY    34  33  96 NE3       30.13F
MANITOWOC      NOT AVBL
SHEBOYGAN      CLOUDY    39  33  79 E9        30.11F
$$

LMZ563-521-522-541>543-300700-
LAKESHORE

STATION/POSITION TIME  TEMP    WIND        PRES    VSBY  WAVE
                       AIR SEA DIR/SP/G                  HT/PER
                 (UTC) (F)     (DEG/KT/KT) (MB)    (MI)  (FT/S)
SHEBOYGAN LKSHOR 0500   38      50/ 12/ 12 1020.8F
KEWAUNEE LKSHORE 0530   36      30/  7/ 11 1020.7F
NORTHPORT PIER   0540   36     100/ 10/ 12 1021.7F
SISTER BAY LKSHO 0506   37     130/  8/ 11   N/A
CHAMBERS ISLAND  0540   33      20/  6/  8 1021.3F
MENOMINEE LKSHOR 0530   34      10/ 12/ 14 1020.9F
$$




USA.gov is the U.S. government's official web portal to all federal, state and local government web resources and services.